Showing default

YAOGAN 20C, 40111

Orbit data source: Space-Track

YAOGAN 20C, 40111 is a payload satellite owned by PLA GAD (CN) in LEO that was launched on Sat, 09 Aug 2014 UTC via a CHANG ZHENG 4C launch vehicle from the Jiuquan Satellite Launch Center, China (JSC). Payload-class satellites include a variety of spacecraft equipped with specific instruments for various scientific and technological missions. These include communications satellites like Starlink; space stations such as the ISS; scientific satellites like the Hubble; Earth observation satellites from companies like Planet Labs, Umbra, and HawkEye 360; GPS; miniature CubeSats for education and research; and military/defense satellites.

Loading next visibility...
Identifier
40111, 2014-047C
Orbit
LEO
Country
Flag of CNCN / PRC
Related business
Manufacturer
CAST
Mission
Operational Defense Sigint
Bus & Motor
Unknown
Mass
~500 kg wet, ~500 kg dry
Launch date (UTC)
2014-08-09 (12 years ago)
Launch vehicle
CHANG ZHENG 4C
Launch site
Jiuquan Satellite Launch Center, China (JSC)
Object type
Payload
Rocket body
Debris
Shape & HBR
Box + 2 Pan, 0.5 m
Radar Cross Section
0.446 m², Large (>1 m²)

Expand to show TLE details & history
Last TLE update: 1 day ago

TLE from 1 day ago
0 YAOGAN 20C
1 40111U 14047C   26172.51523433 -.00000120  00000-0 -30764-4 0  9996
2 40111  63.3793   8.5458 0390328  15.1331 346.0988 13.45450707582873
Epoch: 2026-06-21T12:21Z
TLE epoch observation values (Epoch: 2026-06-21T12:21:56.246Z)
Latitude
-0.00001°
Longitude
-86.65296°
Altitude
808.55 km
Speed
7.589 km/s
True Right ascension
00h 34m 10s
True Declination
0° 00' 00"
Sunlit
Object was in daylight at epoch
Visualization orbit readout
Latitude
Unknown
Longitude
Unknown
Altitude
Unknown
Speed
Unknown
Apparent Right ascension
Unknown
Apparent Declination
Unknown
Sunlit
N/A
Visualization observer readout
Local Sidereal Time
00:50:25
Azimuth
Unknown
Elevation
Unknown
Doppler factor
Unknown
Orbital elements
Apogee altitude
1,379.292 km
Perigee altitude
796.454 km
Semi-major axis
7,466.01 km
Eccentricity
0.03903
Inclination
63.3793°
RAAN
8.5458°
Arg. of periapsis
15.1331°
True anomaly
344.97097°
Mean anomaly
346.0988°
Eccentric anomaly
345.54037°
Mean motion
3.36442 °/min
Orbital period
107 mins
BSTAR
-0.000030764
Loading maneuver chart data...
Computing Atmospheric mass density...
Loading historical data...
Loading historical data...
Loading historical data...
Loading historical data...
Loading historical data...
Loading historical data...
Loading historical data...

Documentation

Showing up to 5 results
|